Regional Weather Roundup
Issued by NWS Newport/Morehead, NC

Current Version | Previous Version | Text Only | Print | Product List | Glossary Off
Versions: 1 2 3 4 5 6 7 8 9 10 11 12 13 14 15 16 17 18 19 20 21 22 23 24 25 26 27 28 29 30 31 32 33 34 35 36 37 38 39 40 41 42 43 44 45 46 47 48 49 50
484 ASUS42 KMHX 221713 RWRMHX WEATHER ROUNDUP FOR EASTERN NORTH CAROLINA NATIONAL WEATHER SERVICE NEWPORT/MOREHEAD CITY NC 100 PM EDT WED MAR 22 2017 NOTE: "FAIR" INDICATES FEW OR NO CLOUDS BELOW 12,000 FEET WITH NO SIGNIFICANT WEATHER AND/OR OBSTRUCTIONS TO VISIBILITY NCZ015>017-031-032-045>047-102-103-221800- NORTH COAST CITY SKY/WX TMP DP RH WIND PRES REMARKS EDENTON NOT AVBL ELIZABETH CITY CLOUDY 53 34 48 N23G30 30.14R KITTY HAWK NOT AVBL MANTEO CLOUDY 50 35 58 NE23G33 30.14R $$ NCZ045>047-081-094-103-104-221800- CENTRAL COAST CITY SKY/WX TMP DP RH WIND PRES REMARKS FRISCO MOSUNNY 56 41 57 NE15G37 30.10R $$ NCZ095-097-098-100-101-221800- SOUTHERN COAST CITY SKY/WX TMP DP RH WIND PRES REMARKS BEAUFORT PTSUNNY 61 47 59 N18G32 30.09R CEDAR ISLAND NOT AVBL JACKSONVILLE NOT AVBL PINEY ISLAND CLOUDY N/A N/A N/A NE24G33 30.10R WILMINGTON PTSUNNY 65 46 50 N15G24 30.09R $$ NCZ011>013-027>030-043-044-078>080-089-090>093-098-221800- COASTAL PLAIN CITY SKY/WX TMP DP RH WIND PRES REMARKS AHOSKIE NOT AVBL CLINTON CLOUDY 64 44 46 N10G17 30.11S ELIZABETHTOWN MOSUNNY 65 46 51 N8 30.11R GOLDSBORO CLOUDY 61 42 48 N15G21 30.11R GREENVILLE CLOUDY 59 41 51 NE10G18 30.14S HAVELOCK NOT AVBL KENANSVILLE CLOUDY 61 45 55 N16 30.12R KINSTON NOT AVBL NEW BERN CLOUDY 59 47 64 N18G26 30.12R RICHLANDS PTSUNNY 61 48 62 N15G23 30.11R ROCKY MOUNT CLOUDY 59 40 49 N17G23 30.15R WASHINGTON CLOUDY 57 44 62 NE9G16 30.12S WHITEVILLE PTSUNNY 64 48 57 N10G16 30.10R $$ AMZ130-135-150-152-154-156-158-170-250-252-270-ANZ085-086-088-633-658-670-221800- MARINE OBSERVATIONS STATION/POSITION TIME TEMP WIND PRES WAVE SWELL AIR SEA DIR/SP/G HT/PER HT/PER (UTC) (F) (DEG/KT/KT) (MB) (FT/S) (FT/S) CHESAPEAKE LIGHT NOT AVBL 64 E VA BEACH 1650 47 48 360/ 25/ 29 1019.4 7/ 5 3/11 DUCK 1648 46 48 10/ 29/ 33 1019.9 2 E DUCK 1700 47 N/A 6/ 5 2/11 OREGON INLET 1642 49 51 350/ 23/ 30 1019.9 13E OREGON INLT NOT AVBL HATTERAS CG 1648 52 55 10/ 30/ 35 1018.6 DIAMOND BUOY 1650 55 74 10/ 31/ 39 1017.4 9/10 CAPE LOOKOUT 1700 57 10/ 22/ 26 1018.6 BEAUFORT LAB 1648 58 53 20/ 18/ 27 1018.0 30 SE NEW RVR IN 1608 57 30/ 19/ 25 1017.8 30 SE NEW RVR IN 1643 64 N/A 6/ 7 2/11 27 SE WRIGHTSVLE 1608 59 64 50/ 17/ 25 1017.3 5 SE WRIGHTSVLE 1608 57 56 40/ 10/ 16 1018.4 225 S CAPE HAT 1650 72 75 280/ 21/ 23 1014.2 9/ 8 2/11 41 SE CHARLESTON 1650 63 66 10/ 21/ 25 1017.3 3/ 6 2/11 $$

USA.gov is the U.S. government's official web portal to all federal, state and local government web resources and services.